Hourly Data Report for May 29, 2012

All times are specified in Local Standard Time (LST). Add 1 hour to adjust for Daylight Saving Time where and when it is observed.

SAULT STE MARIE A
ONTARIO

46°29'06.000" N
84°30'35.000" W
192.00 m
6057591
71260
YAM

Download Data

Hourly Data (May 2012)
Hourly Data Report for May 29, 2012
Temp Definition
°C
Dew Point Temp Definition
°C
Rel Hum Definition
%
Wind Dir Definition
10's deg

Wind Spd Definition
km/h
Visibility Definition
km
Stn Press Definition
kPa
Hmdx Definition


Wind Chill Definition


Weather Definition


TIME
00:00 13.5 13.5 100 28 9 0.6 98.06     Fog
01:00 12.5 12.5 100 24 4 0.8 98.04     Fog
02:00 11.2 11.2 100 22 5 0.6 98.02     Fog
03:00 12.3 12.3 100 27 7 0.6 98.07     Fog
04:00 11.9 12.6 105 29 11 1.6 98.05     Drizzle,Fog
05:00 11.9 11.9 100   0 10.0 97.99     LegendNANA
06:00 10.9 10.9 100 22 4 10.0 98.02     LegendNANA
07:00 11.9 11.9 100 28 8 1.6 98.07     Drizzle,Fog
08:00 10.6 10.6 100 29 14 1.2 98.13     Fog
09:00 12.9 12.9 100 29 14 10.0 98.13     LegendNANA
10:00 15.9 13.2 84 28 15 10.0 98.23     Mostly Cloudy
11:00 16.7 9.9 64 31 18 10.0 98.27     LegendNANA
12:00 17.4 8.1 54 29 18 10.0 98.21     LegendNANA
13:00 15.9 9.2 64 1 5 10.0 98.20     Rain Showers
14:00 11.8 11.0 95 32 9 4.8 98.25     Rain Showers,Fog
15:00 11.5 11.5 100 15 10 10.0 98.26     Rain Showers
16:00 12.2 12.2 100 20 8 10.0 98.27     Mostly Cloudy
17:00 13.1 11.5 90 27 6 10.0 98.28     LegendNANA
18:00 12.1 11.0 93 32 12 10.0 98.30     LegendNANA
19:00 12.4 10.2 86 28 10 10.0 98.32     Mostly Cloudy
20:00 10.9 9.7 92 26 11 10.0 98.37     LegendNANA
21:00 9.8 9.5 98 36 5 10.0 98.41     LegendNANA
22:00 9.9 9.9 100 33 6 10.0 98.44     Mostly Cloudy
23:00 8.1 8.1 100 28 5 10.0 98.42     LegendNANA

Notes on Data Quality.

Legend

  • E = Estimated
  • M = Missing
  • NA = Not Available
Date modified: